• In Slovakia
  • List of Countries
  • For 7 days
  • Water Temperature
  • Satellite Maps
  • Weather Map
  • Weather Widgets
  • user-avatar
    Login

    Hourly Weather Suchorzyn

    Today, 23 October, Tuesday

    Time Temperature Precipitation Wind Pressure Humidity
    00:00 +5°C° 0 mm 4 mps 756 mmHg 85%
    01:00 +4°C° 0 mm 4 mps 756 mmHg 85%
    02:00 +4°C° 0 mm 4 mps 755 mmHg 85%
    03:00 +4°C° 0 mm 4 mps 754 mmHg 85%
    04:00 +3°C° 0 mm 5 mps 754 mmHg 85%
    05:00 +3°C° 0 mm 5 mps 753 mmHg 82%
    06:00 +3°C° 0 mm 6 mps 752 mmHg 79%
    07:00 +4°C° 0 mm 7 mps 751 mmHg 76%
    08:00 +4°C° 0.3 mm 8 mps 750 mmHg 74%
    09:00 +5°C° 0.3 mm 9 mps 749 mmHg 72%
    10:00 +5°C° 0.3 mm 10 mps 748 mmHg 71%
    11:00 +5°C° 1.1 mm 10 mps 747 mmHg 73%
    12:00 +4°C° 1.1 mm 11 mps 746 mmHg 75%
    13:00 +4°C° 1.1 mm 11 mps 744 mmHg 78%
    14:00 +6°C° 0.4 mm 11 mps 743 mmHg 78%
    15:00 +7°C° 0.4 mm 12 mps 742 mmHg 79%
    16:00 +7°C° 0.4 mm 12 mps 741 mmHg 79%
    17:00 +8°C° 1.1 mm 11 mps 741 mmHg 81%
    18:00 +8°C° 1.1 mm 11 mps 740 mmHg 83%
    19:00 +8°C° 1.1 mm 10 mps 739 mmHg 84%
    20:00 +8°C° 1.8 mm 10 mps 739 mmHg 85%
    21:00 +8°C° 1.8 mm 10 mps 738 mmHg 85%
    22:00 +8°C° 1.8 mm 10 mps 738 mmHg 86%
    23:00 +8°C° 2 mm 9 mps 737 mmHg 85%

    Tomorrow, 24 October, Wednesday

    Time Temperature Precipitation Wind Pressure Humidity
    00:00 +8°C° 2 mm 9 mps 736 mmHg 84%
    01:00 +8°C° 2 mm 9 mps 736 mmHg 83%
    02:00 +7°C° 0.8 mm 10 mps 735 mmHg 78%
    03:00 +6°C° 0.8 mm 11 mps 735 mmHg 74%
    04:00 +6°C° 0.8 mm 11 mps 735 mmHg 69%
    05:00 +4°C° 0.1 mm 11 mps 736 mmHg 67%
    06:00 +3°C° 0.1 mm 10 mps 738 mmHg 64%
    07:00 +3°C° 0.1 mm 9 mps 739 mmHg 62%
    08:00 +3°C° 0 mm 10 mps 739 mmHg 57%
    09:00 +4°C° 0 mm 11 mps 740 mmHg 51%
    10:00 +5°C° 0 mm 12 mps 740 mmHg 46%
    11:00 +5°C° 0 mm 12 mps 741 mmHg 45%
    12:00 +6°C° 0 mm 11 mps 741 mmHg 45%
    13:00 +6°C° 0 mm 11 mps 742 mmHg 44%
    14:00 +6°C° 0 mm 11 mps 742 mmHg 45%
    15:00 +6°C° 0 mm 10 mps 743 mmHg 46%
    16:00 +5°C° 0 mm 9 mps 744 mmHg 47%
    17:00 +5°C° 0 mm 9 mps 744 mmHg 49%
    18:00 +4°C° 0 mm 8 mps 745 mmHg 50%
    19:00 +4°C° 0 mm 8 mps 746 mmHg 52%
    20:00 +4°C° 0 mm 7 mps 746 mmHg 55%
    21:00 +3°C° 0 mm 7 mps 746 mmHg 57%
    22:00 +3°C° 0 mm 7 mps 747 mmHg 60%
    23:00 +3°C° 0 mm 6 mps 747 mmHg 62%

    Day after tomorrow, 25 October, Thursday

    Time Temperature Precipitation Wind Pressure Humidity
    00:00 +3°C° 0 mm 6 mps 747 mmHg 65%
    01:00 +2°C° 0 mm 6 mps 747 mmHg 67%
    02:00 +2°C° 0 mm 6 mps 747 mmHg 70%
    03:00 +2°C° 0 mm 6 mps 746 mmHg 72%
    04:00 +2°C° 0 mm 6 mps 746 mmHg 75%
    05:00 +2°C° 0.4 mm 6 mps 745 mmHg 79%
    06:00 +3°C° 0.4 mm 6 mps 744 mmHg 82%
    07:00 +3°C° 0.4 mm 7 mps 743 mmHg 86%
    08:00 +5°C° 0.6 mm 7 mps 742 mmHg 86%
    09:00 +6°C° 0.6 mm 8 mps 742 mmHg 86%
    10:00 +8°C° 0.6 mm 9 mps 741 mmHg 86%
    11:00 +8°C° 0.2 mm 9 mps 741 mmHg 83%
    12:00 +8°C° 0.2 mm 10 mps 740 mmHg 80%
    13:00 +8°C° 0.2 mm 10 mps 740 mmHg 76%
    14:00 +8°C° 0.1 mm 10 mps 741 mmHg 75%
    15:00 +8°C° 0.1 mm 9 mps 741 mmHg 73%
    16:00 +7°C° 0.1 mm 9 mps 741 mmHg 71%
    17:00 +7°C° 0 mm 8 mps 742 mmHg 73%
    18:00 +6°C° 0 mm 8 mps 743 mmHg 75%
    19:00 +6°C° 0 mm 7 mps 743 mmHg 77%
    20:00 +5°C° 0 mm 7 mps 743 mmHg 79%
    21:00 +5°C° 0 mm 6 mps 744 mmHg 81%
    22:00 +5°C° 0 mm 6 mps 744 mmHg 82%
    23:00 +5°C° 0 mm 6 mps 744 mmHg 83%

    26 October, Friday

    Time Temperature Precipitation Wind Pressure Humidity
    00:00 +5°C° 0 mm 6 mps 745 mmHg 84%
    01:00 +4°C° 0 mm 6 mps 745 mmHg 85%
    02:00 +5°C° 0 mm 5 mps 745 mmHg 85%
    03:00 +5°C° 0 mm 5 mps 745 mmHg 85%
    04:00 +5°C° 0 mm 5 mps 745 mmHg 86%
    05:00 +5°C° 0 mm 4 mps 745 mmHg 87%
    06:00 +5°C° 0 mm 4 mps 745 mmHg 88%
    07:00 +5°C° 0 mm 4 mps 745 mmHg 88%
    08:00 +6°C° 0 mm 4 mps 745 mmHg 85%
    09:00 +6°C° 0 mm 4 mps 745 mmHg 81%
    10:00 +7°C° 0 mm 4 mps 745 mmHg 77%
    11:00 +8°C° 0 mm 4 mps 744 mmHg 74%
    12:00 +10°C° 0 mm 4 mps 744 mmHg 71%
    13:00 +11°C° 0 mm 4 mps 744 mmHg 68%
    14:00 +10°C° 0 mm 4 mps 743 mmHg 71%
    15:00 +10°C° 0 mm 3 mps 743 mmHg 75%
    16:00 +10°C° 0 mm 3 mps 742 mmHg 78%
    17:00 +10°C° 0 mm 3 mps 742 mmHg 79%
    18:00 +10°C° 0 mm 4 mps 742 mmHg 80%
    19:00 +10°C° 0 mm 4 mps 741 mmHg 82%
    20:00 +10°C° 0 mm 4 mps 741 mmHg 81%
    21:00 +9°C° 0 mm 5 mps 741 mmHg 81%
    22:00 +9°C° 0 mm 5 mps 740 mmHg 80%
    23:00 +9°C° 0 mm 5 mps 740 mmHg 80%

    27 October, Saturday

    Time Temperature Precipitation Wind Pressure Humidity
    00:00 +9°C° 0 mm 5 mps 740 mmHg 80%
    01:00 +9°C° 0 mm 5 mps 739 mmHg 81%
    02:00 +10°C° 0 mm 4 mps 739 mmHg 83%
    03:00 +8°C° 0 mm 4 mps 739 mmHg 84%
    04:00 +8°C° 0 mm 4 mps 738 mmHg 86%
    05:00 +8°C° 0 mm 4 mps 739 mmHg 87%
    06:00 +7°C° 0 mm 4 mps 739 mmHg 87%
    07:00 +7°C° 0 mm 4 mps 739 mmHg 88%
    08:00 +7°C° 0.1 mm 5 mps 739 mmHg 82%
    09:00 +8°C° 0.1 mm 5 mps 740 mmHg 76%
    10:00 +8°C° 0.1 mm 5 mps 740 mmHg 70%
    11:00 +8°C° 0 mm 5 mps 740 mmHg 65%
    12:00 +8°C° 0 mm 5 mps 740 mmHg 61%
    13:00 +8°C° 0 mm 5 mps 740 mmHg 56%
    14:00 +8°C° 0 mm 5 mps 740 mmHg 57%
    15:00 +8°C° 0 mm 4 mps 740 mmHg 58%
    16:00 +8°C° 0 mm 3 mps 740 mmHg 60%
    17:00 +8°C° 0 mm 3 mps 740 mmHg 62%
    18:00 +7°C° 0 mm 3 mps 740 mmHg 63%
    19:00 +7°C° 0 mm 3 mps 741 mmHg 65%
    20:00 +7°C° 0 mm 2 mps 740 mmHg 66%
    21:00 +7°C° 0 mm 2 mps 740 mmHg 68%
    22:00 +7°C° 0 mm 2 mps 740 mmHg 69%
    23:00 +6°C° 0 mm 2 mps 740 mmHg 70%

    28 October, Sunday

    Time Temperature Precipitation Wind Pressure Humidity
    00:00 +6°C° 0 mm 2 mps 740 mmHg 71%
    01:00 +7°C° 0 mm 1 mps 740 mmHg 72%
    02:00 +7°C° 0.1 mm 1 mps 740 mmHg 72%
    03:00 +7°C° 0.1 mm 1 mps 740 mmHg 73%
    04:00 +7°C° 0.1 mm 1 mps 739 mmHg 74%
    05:00 +6°C° 0.2 mm 1 mps 739 mmHg 74%
    06:00 +6°C° 0.2 mm 1 mps 739 mmHg 74%
    07:00 +6°C° 0.2 mm 1 mps 739 mmHg 74%
    08:00 +5°C° 0.3 mm 2 mps 740 mmHg 73%
    09:00 +6°C° 0.3 mm 2 mps 740 mmHg 72%
    10:00 +5°C° 0.3 mm 3 mps 740 mmHg 71%
    11:00 +5°C° 0.1 mm 3 mps 741 mmHg 68%
    12:00 +6°C° 0.1 mm 4 mps 741 mmHg 65%
    13:00 +6°C° 0.1 mm 4 mps 741 mmHg 62%
    14:00 +6°C° 0 mm 4 mps 742 mmHg 63%
    15:00 +6°C° 0 mm 4 mps 742 mmHg 64%
    16:00 +7°C° 0 mm 3 mps 743 mmHg 64%
    17:00 +5°C° 0 mm 3 mps 743 mmHg 67%
    18:00 +4°C° 0 mm 3 mps 744 mmHg 69%
    19:00 +3°C° 0 mm 3 mps 745 mmHg 71%
    20:00 +3°C° 0 mm 3 mps 745 mmHg 73%
    21:00 +3°C° 0 mm 3 mps 746 mmHg 74%
    22:00 +2°C° 0 mm 3 mps 746 mmHg 76%
    23:00 +2°C° 0 mm 3 mps 746 mmHg 77%

    29 October, Monday

    Time Temperature Precipitation Wind Pressure Humidity
    00:00 +2°C° 0 mm 3 mps 747 mmHg 79%
    01:00 +2°C° 0 mm 3 mps 747 mmHg 81%
    02:00 +1°C° 0 mm 3 mps 747 mmHg 82%
    03:00 +1°C° 0 mm 3 mps 747 mmHg 83%
    04:00 +1°C° 0 mm 3 mps 748 mmHg 84%
    05:00 +1°C° 0 mm 3 mps 748 mmHg 85%
    06:00 +2°C° 0 mm 2 mps 748 mmHg 86%
    07:00 +1°C° 0 mm 2 mps 749 mmHg 87%
    08:00 +3°C° 0 mm 2 mps 749 mmHg 81%
    09:00 +4°C° 0 mm 2 mps 749 mmHg 75%
    10:00 +5°C° 0 mm 2 mps 750 mmHg 68%
    11:00 +6°C° 0 mm 2 mps 750 mmHg 65%
    12:00 +7°C° 0 mm 1 mps 750 mmHg 62%
    13:00 +8°C° 0 mm 1 mps 749 mmHg 59%
    14:00 +7°C° 0 mm 1 mps 749 mmHg 61%
    15:00 +7°C° 0 mm 1 mps 749 mmHg 64%
    16:00 +7°C° 0 mm 1 mps 749 mmHg 66%
    17:00 +7°C° 0 mm 1 mps 749 mmHg 67%
    18:00 +6°C° 0 mm 1 mps 749 mmHg 68%
    19:00 +5°C° 0 mm 2 mps 749 mmHg 69%
    20:00 +5°C° 0 mm 2 mps 749 mmHg 70%
    21:00 +5°C° 0 mm 2 mps 748 mmHg 72%
    22:00 +4°C° 0 mm 3 mps 748 mmHg 74%
    23:00 +3°C° 0.2 mm 3 mps 748 mmHg 75%
    Show more